User: anonymous   Login
Location: Unspecified
(0.0000°N, 0.0000°E)
Time: 11:56:44
(UTC+00:00)
Language:

Snapshot - Orbit

View from above orbital plane
View from above orbital plane
View from above satellite
View from above satellite

Ground track
Ground track

The orbit data is extracted from the following two-line orbital elements,

1  1314U 65027A   20332.90713007 +.00000041 +00000-0 +12452-3 0  9998
2  1314 090.2838 319.2493 0030522 173.0217 244.2860 12.91760874369295
Epoch (UTC): 27 November 2020 21:46:16
Eccentricity: 0.0030522
inclination: 90.2838°
perigee height: 1271 km
apogee height: 1318 km
right ascension of ascending node: 319.2493°
argument of perigee: 173.0217°
revolutions per day: 12.91760874
mean anomaly at epoch: 244.2860°
orbit number at epoch: 36929

The dashed part of the orbit path shows where the satellite is in the earth's shadow,  

DLR